User: anonymous
Location: Melbourne
(37.8170°S, 144.9670°E)
Time: 18:11:59
(UTC+10:00)
Language:

Explorer 11/Cluster Stage 4 - Orbit

View from above orbital plane
View from above orbital plane
View from above satellite
View from above satellite

Ground track
Ground track

The orbit data is extracted from the following two-line orbital elements,

1 00107U 61013A   14273.77728437  .00004264  00000-0  57614-3 0  1502
2 00107 028.7874 069.8030 0561393 118.2995 009.0624 14.05274974671439
Epoch (UTC): 30 September 2014 18:39:17
Eccentricity: 0.0561393
inclination: 28.7874°
perigee height: 468 km
apogee height: 1283 km
right ascension of ascending node: 69.8030°
argument of perigee: 118.2995°
revolutions per day: 14.05274974
mean anomaly at epoch: 9.0624°
orbit number at epoch: 67143

The dashed part of the orbit path shows where the satellite is in the earth's shadow,  

DLR